TimeCST,TemperatureF,Dew PointF,Humidity,Sea Level PressureIn,VisibilityMPH,Wind Direction,Wind SpeedMPH,Gust SpeedMPH,PrecipitationIn,Events,Conditions,WindDirDegrees,DateUTC
12:52 AM,30.9,21.0,67,30.22,10.0,South,10.4,-,N/A,,Clear,180,2013-01-07 06:52:00
2:52 AM,32.0,19.9,61,30.19,10.0,South,12.7,-,N/A,,Clear,180,2013-01-07 08:52:00
3:52 AM,32.0,19.9,61,30.19,10.0,SSW,11.5,-,N/A,,Clear,200,2013-01-07 09:52:00
4:52 AM,27.0,19.0,72,30.17,10.0,South,8.1,-,N/A,,Clear,170,2013-01-07 10:52:00
5:52 AM,28.0,19.0,69,30.17,10.0,South,8.1,-,N/A,,Clear,180,2013-01-07 11:52:00
6:52 AM,26.1,19.0,75,30.17,10.0,South,8.1,-,N/A,,Clear,180,2013-01-07 12:52:00
7:52 AM,28.9,21.0,72,30.17,10.0,South,8.1,-,N/A,,Clear,190,2013-01-07 13:52:00
8:52 AM,32.0,21.9,66,30.18,10.0,South,12.7,-,N/A,,Clear,190,2013-01-07 14:52:00
9:52 AM,37.0,23.0,57,30.17,10.0,SSW,16.1,-,N/A,,Clear,200,2013-01-07 15:52:00
10:52 AM,43.0,24.1,47,30.16,10.0,SSW,17.3,-,N/A,,Clear,200,2013-01-07 16:52:00
11:52 AM,46.9,23.0,39,30.12,10.0,SSW,18.4,-,N/A,,Clear,210,2013-01-07 17:52:00
12:52 PM,51.1,24.1,35,30.07,10.0,SSW,20.7,-,N/A,,Clear,200,2013-01-07 18:52:00
1:52 PM,52.0,24.1,34,30.04,10.0,SSW,17.3,-,N/A,,Clear,200,2013-01-07 19:52:00
2:52 PM,53.1,24.1,32,30.02,10.0,South,17.3,-,N/A,,Clear,190,2013-01-07 20:52:00
3:52 PM,53.1,23.0,31,30.01,10.0,South,17.3,-,N/A,,Clear,190,2013-01-07 21:52:00
4:52 PM,50.0,23.0,35,30.01,10.0,South,11.5,-,N/A,,Clear,190,2013-01-07 22:52:00
5:52 PM,46.9,23.0,39,30.01,10.0,South,12.7,-,N/A,,Clear,180,2013-01-07 23:52:00
6:52 PM,45.0,23.0,42,30.02,10.0,South,13.8,-,N/A,,Clear,180,2013-01-08 00:52:00
7:52 PM,43.0,24.1,47,30.02,10.0,South,15.0,-,N/A,,Clear,190,2013-01-08 01:52:00
8:52 PM,41.0,25.0,53,30.01,10.0,South,15.0,-,N/A,,Clear,190,2013-01-08 02:52:00
9:52 PM,39.0,25.0,57,30.01,10.0,South,11.5,-,N/A,,Clear,190,2013-01-08 03:52:00
10:52 PM,37.9,25.0,60,30.00,10.0,South,12.7,-,N/A,,Clear,180,2013-01-08 04:52:00
11:52 PM,37.0,24.1,59,29.99,10.0,South,13.8,-,N/A,,Clear,190,2013-01-08 05:52:00